Location: Huntsville
(41.2590°N, 111.7678°W)
Time: 02:18:07
(UTC+00:00)

Transit 2A - Visible Passes

Search period start: 13 June 2021 00:00
Search period end: 23 June 2021 00:00
Orbit: 601 x 957 km, 66.7° (Epoch: 12 June)

Date Brightness Start Highest point End Pass type
(mag) Time Alt. Az. Time Alt. Az. Time Alt. Az.
13 Jun 7.3 09:40:29 10° NNW 09:45:04 39° NE 09:50:06 10° ESE visible
14 Jun 7.9 09:06:34 10° N 09:10:46 28° NE 09:15:19 10° ESE visible
14 Jun 6.4 10:49:19 10° NW 10:54:01 42° WSW 10:59:11 10° S visible
15 Jun 8.3 08:32:46 10° N 08:36:25 20° NE 08:40:18 10° E visible
15 Jun 6.0 10:14:57 10° NW 10:19:53 62° WSW 10:25:20 10° SSE visible
16 Jun 8.7 07:59:11 10° N 08:01:59 15° NE 08:04:55 10° ENE visible
16 Jun 5.9 09:40:44 10° NNW 09:45:43 89° ENE 09:51:16 10° SSE visible
17 Jun 8.8 07:26:12 10° NNE 07:27:29 11° NE 07:28:47 10° NE visible
17 Jun 6.4 09:06:36 10° NNW 09:11:31 62° ENE 09:16:58 10° SE visible
17 Jun 7.4 10:50:54 10° WNW 10:54:19 18° WSW 10:57:55 10° SSW visible
18 Jun 7.0 08:32:34 10° NNW 08:37:17 42° NE 08:42:16 11° SE visible
18 Jun 7.0 10:16:03 10° NW 10:20:17 27° WSW 10:22:38 20° SSW visible
19 Jun 7.6 07:58:37 10° N 08:02:59 30° NE 08:07:30 11° ESE visible
19 Jun 6.5 09:41:29 10° NW 09:46:12 39° WSW 09:47:53 31° SSW visible
20 Jun 8.0 07:24:47 10° N 07:28:38 22° NE 07:32:45 10° E visible
20 Jun 6.0 09:07:06 10° NW 09:12:04 58° WSW 09:13:27 44° SSW visible
21 Jun 8.4 06:51:09 10° N 06:54:13 16° NE 06:57:28 10° E visible
21 Jun 5.9 08:32:52 10° NNW 08:37:55 85° WSW 08:39:15 53° SSE visible
21 Jun 8.1 10:19:14 10° W 10:19:40 10° W 10:19:40 10° W visible
22 Jun 8.6 06:17:53 10° NNE 06:19:44 12° NE 06:21:38 10° ENE visible
22 Jun 6.2 07:58:43 10° NNW 08:03:43 67° ENE 08:05:11 46° ESE visible
22 Jun 7.7 09:43:12 10° WNW 09:45:37 16° W 09:45:37 16° W visible
